CORVUS BC3 (43118 NORAD) Tracking and Keplerian Element Data

This shows tracking and keplerian element data for the satellite.

Feedback or suggestion? Click here.




ElementValue
Catalog43118
NameCORVUS BC3
Epoch Orbit2837
Epoch Day198.83931303
Epoch Year2018
RAAN261.4873
Inclination97.5311
Eccentricity0.0010386
Argument of Perigee357.1584
Mean Anonmoly2.9591
Mean Motion15.22297834
Decay Rate6.19E-06
L11 43118U 18004H 18198.83931303 .00000619 00000-0 29997-4 0 9993
L22 43118 97.5311 261.4873 0010386 357.1584 2.9591 15.22297834 28376

Live tracking and technical data element details for CORVUS BC3 (NORAD 43118). CORVUS BC3 can be tracked NOW for your location showing map with azimuth and elevation plus other details from your city location.

Track the satellite on the map from your city or location and see movement details for azimuth, elevation, latitude, longitude, range, height, and movement on the map or in text.







IsCatalogInMostPopularTable: catalog: 43118, numindb: 69
Update: records affected: 1



GetName: 43118 CORVUS BC3

Hit Count: updated at: Wed, 18 Jul 2018 20:31:46 GMT